Flag for Canada Weather past 2 weeks in Sarnia, Ontario, Canada

Now
84 °F

Sunny.


Feels Like: 86 °F
Forecast: 61 / 88 °F
Wind: 16 mph from South

Location: Sarnia Airport

Current Time: Jul 22, 2014 at 2:24:57 PM

Latest Report: Jul 22, 2014 at 1:00 PM


Visibility: 9 mi

Pressure: 30.01 "Hg

Humidity: 51%

Dew point: 64 °F

Location of SarniaLocation

Historic Weather in Sarnia — Graph

°F

Sarnia temperature yesterday

Maximum temperature yesterday: 82 °F (at 1:00 PM)
Minimum temperature yesterday: 57 °F (at 3:49 AM)
Average temperature yesterday: 70 °F

Past Weeks' High & Low Weather Summary

 TemperatureHumidityPressure
High84 °F (Jul 7, 4:00 PM)100% (Jul 11, 5:00 AM)30.26 "Hg (Jul 11, 5:00 AM)
Low54 °F (Jul 11, 5:00 AM)44% (Jul 11, 7:00 PM)29.55 "Hg (Jul 8, 4:00 PM)
Average67 °F75%29.97 "Hg
* Reported Jul 7 12:00 Noon — Jul 22 12:00 Noon, Sarnia, Weather by CustomWeather, © 2014

Note: Actual official high and low records may vary slightly from our data, if they occured in-between our weather recording intervals... More about our weather records

Advertising

Sarnia weather history for previous 24 hours

 ConditionsComfort  
Time TempWeatherWind HumidityBarometerVisibility
12:00 PM
Jul 22
82 °FSunny.12 mph55%30.04 "Hg9 mi
11:00 AM81 °FSunny.10 mph58%30.06 "Hg9 mi
10:00 AM77 °FSunny.7 mph65%30.09 "Hg9 mi
9:00 AM73 °FSunny.6 mph74%30.12 "Hg9 mi
8:00 AM68 °FSunny.5 mph83%30.11 "Hg8 mi
7:00 AM63 °FFog.6 mph94%30.10 "Hg6 mi
6:00 AM63 °FClear.5 mph88%30.10 "Hg7 mi
5:00 AM63 °FClear.5 mph88%30.09 "Hg9 mi
4:00 AM63 °FClear.2 mph88%30.10 "Hg9 mi
3:00 AM63 °FClear.No wind88%30.10 "Hg9 mi
2:00 AM66 °FClear.3 mph83%30.10 "Hg9 mi
1:00 AM66 °FClear.5 mph83%30.10 "Hg9 mi
12:00 AM68 °FClear.6 mph83%30.11 "Hg9 mi
11:00 PM
Jul 21
70 °FClear.3 mph78%30.11 "Hg9 mi
10:00 PM72 °FSunny.3 mph73%30.11 "Hg9 mi
9:00 PM77 °FSunny.6 mph61%30.10 "Hg9 mi
8:00 PM81 °FSunny.6 mph51%30.09 "Hg9 mi
7:00 PM81 °FSunny.5 mph54%30.09 "Hg9 mi
6:00 PM82 °FScattered clouds.7 mph55%30.10 "Hg9 mi
5:00 PM82 °FPassing clouds.5 mph45%30.10 "Hg9 mi
4:00 PM82 °FPartly sunny.3 mph45%30.11 "Hg9 mi
3:00 PM82 °FPartly sunny.6 mph55%30.11 "Hg9 mi
2:00 PM81 °FBroken clouds.3 mph54%30.13 "Hg9 mi
Weather by CustomWeather, © 2014

See weather overviewHow to use our weather pages